Time,TemperatureF,DewpointF,PressureIn,WindDirection,WindDirectionDegrees,WindSpeedMPH,WindSpeedGustMPH,Humidity,HourlyPrecipIn,Conditions,Clouds,dailyrainin,SolarRadiationWatts/m^2,SoftwareType,DateUTC
2014-10-01 00:00:00,52.3,50.0,29.96,East,86,1.0,3.0,90,0.00,,,0.00,0,weatherlink.com 1.10,2014-10-01 04:00:00,
2014-10-01 00:15:00,52.2,49.0,29.96,ENE,62,1.0,4.0,89,0.00,,,0.00,0,weatherlink.com 1.10,2014-10-01 04:15:00,
2014-10-01 00:30:00,51.5,48.0,29.96,ENE,72,0.0,4.0,89,0.00,,,0.00,0,weatherlink.com 1.10,2014-10-01 04:30:00,
2014-10-01 00:45:00,50.9,48.0,29.96,ENE,68,0.0,4.0,90,0.00,,,0.00,0,weatherlink.com 1.10,2014-10-01 04:45:00,
2014-10-01 01:00:00,50.6,48.0,29.96,ENE,61,0.0,3.0,90,0.00,,,0.00,0,weatherlink.com 1.10,2014-10-01 05:00:00,
2014-10-01 01:15:00,50.4,48.0,29.96,ENE,63,0.0,3.0,90,0.00,,,0.00,0,weatherlink.com 1.10,2014-10-01 05:15:00,
2014-10-01 01:30:00,48.9,46.0,29.96,ENE,63,0.0,0.0,91,0.00,,,0.00,0,weatherlink.com 1.10,2014-10-01 05:30:00,
2014-10-01 01:45:00,48.4,46.0,29.96,ENE,63,0.0,0.0,92,0.00,,,0.00,0,weatherlink.com 1.10,2014-10-01 05:45:00,
2014-10-01 02:00:00,47.8,46.0,29.96,ENE,63,0.0,0.0,92,0.00,,,0.00,0,weatherlink.com 1.10,2014-10-01 06:00:00,
2014-10-01 02:15:00,47.5,45.0,29.97,ENE,63,0.0,0.0,92,0.00,,,0.00,0,weatherlink.com 1.10,2014-10-01 06:15:00,
2014-10-01 02:30:00,47.5,45.0,29.97,ENE,63,0.0,0.0,92,0.00,,,0.00,0,weatherlink.com 1.10,2014-10-01 06:30:00,
2014-10-01 02:45:00,47.3,45.0,29.97,ENE,63,0.0,1.0,93,0.00,,,0.00,0,weatherlink.com 1.10,2014-10-01 06:45:00,
2014-10-01 03:00:00,46.9,45.0,29.96,ENE,63,0.0,0.0,93,0.00,,,0.00,0,weatherlink.com 1.10,2014-10-01 07:00:00,
2014-10-01 03:15:00,46.8,45.0,29.96,ENE,63,0.0,0.0,93,0.00,,,0.00,0,weatherlink.com 1.10,2014-10-01 07:15:00,
2014-10-01 03:30:00,46.1,44.0,29.96,ENE,63,0.0,0.0,93,0.00,,,0.00,0,weatherlink.com 1.10,2014-10-01 07:30:00,
2014-10-01 03:45:00,46.0,44.0,29.95,ENE,63,0.0,0.0,93,0.00,,,0.00,0,weatherlink.com 1.10,2014-10-01 07:45:00,
2014-10-01 04:00:00,45.9,44.0,29.95,ENE,63,0.0,0.0,93,0.00,,,0.00,0,weatherlink.com 1.10,2014-10-01 08:00:00,
2014-10-01 04:15:00,45.4,44.0,29.96,ENE,63,0.0,0.0,93,0.00,,,0.00,0,weatherlink.com 1.10,2014-10-01 08:15:00,
2014-10-01 04:30:00,45.2,43.0,29.95,ENE,63,0.0,0.0,92,0.00,,,0.00,0,weatherlink.com 1.10,2014-10-01 08:30:00,
2014-10-01 04:46:00,44.9,43.0,29.96,ENE,63,0.0,0.0,93,0.00,,,0.00,0,weatherlink.com 1.10,2014-10-01 08:46:00,
2014-10-01 05:01:00,45.5,43.0,29.96,ENE,63,0.0,0.0,92,0.00,,,0.00,0,weatherlink.com 1.10,2014-10-01 09:01:00,
2014-10-01 05:16:00,45.1,43.0,29.96,ENE,63,0.0,0.0,92,0.00,,,0.00,0,weatherlink.com 1.10,2014-10-01 09:16:00,
2014-10-01 05:31:00,44.3,42.0,29.96,ENE,63,0.0,0.0,93,0.00,,,0.00,0,weatherlink.com 1.10,2014-10-01 09:31:00,
2014-10-01 05:46:00,44.2,42.0,29.96,ENE,63,0.0,0.0,93,0.00,,,0.00,0,weatherlink.com 1.10,2014-10-01 09:46:00,
2014-10-01 06:01:00,44.8,43.0,29.96,ENE,63,0.0,0.0,92,0.00,,,0.00,0,weatherlink.com 1.10,2014-10-01 10:01:00,
2014-10-01 06:16:00,46.3,44.0,29.96,ENE,63,0.0,1.0,92,0.00,,,0.00,0,weatherlink.com 1.10,2014-10-01 10:16:00,
2014-10-01 06:31:00,47.5,45.0,29.97,ENE,65,0.0,1.0,92,0.00,,,0.00,0,weatherlink.com 1.10,2014-10-01 10:31:00,
2014-10-01 06:46:00,48.8,46.0,29.96,ENE,65,2.0,3.0,91,0.00,,,0.00,0,weatherlink.com 1.10,2014-10-01 10:46:00,
2014-10-01 07:01:00,49.4,47.0,29.97,NE,46,0.0,3.0,91,0.00,,,0.00,0,weatherlink.com 1.10,2014-10-01 11:01:00,
2014-10-01 07:17:00,49.9,47.0,29.97,ENE,63,1.0,2.0,91,0.00,,,0.00,0,weatherlink.com 1.10,2014-10-01 11:17:00,
2014-10-01 07:31:00,50.4,48.0,29.98,NE,55,0.0,3.0,91,0.00,,,0.00,0,weatherlink.com 1.10,2014-10-01 11:31:00,
2014-10-01 07:46:00,50.9,48.0,29.98,ENE,57,1.0,2.0,91,0.00,,,0.00,9,weatherlink.com 1.10,2014-10-01 11:46:00,
2014-10-01 08:01:00,51.3,49.0,29.98,ENE,59,0.0,2.0,91,0.00,,,0.00,18,weatherlink.com 1.10,2014-10-01 12:01:00,
2014-10-01 08:16:00,51.7,49.0,29.99,ENE,72,0.0,3.0,91,0.00,,,0.00,26,weatherlink.com 1.10,2014-10-01 12:16:00,
2014-10-01 08:31:00,52.1,50.0,29.99,ENE,74,1.0,2.0,92,0.00,,,0.00,35,weatherlink.com 1.10,2014-10-01 12:31:00,
2014-10-01 08:46:00,52.6,50.0,30.00,East,85,1.0,2.0,91,0.00,,,0.00,60,weatherlink.com 1.10,2014-10-01 12:46:00,
2014-10-01 09:01:00,53.1,51.0,30.00,East,85,0.0,2.0,91,0.00,,,0.00,105,weatherlink.com 1.10,2014-10-01 13:01:00,
2014-10-01 09:16:00,53.5,51.0,30.00,ENE,74,1.0,3.0,91,0.00,,,0.00,105,weatherlink.com 1.10,2014-10-01 13:16:00,
2014-10-01 09:31:00,54.1,52.0,30.00,East,83,0.0,1.0,92,0.00,,,0.00,141,weatherlink.com 1.10,2014-10-01 13:31:00,
2014-10-01 09:46:00,54.6,52.0,30.01,SSW,199,2.0,3.0,92,0.00,,,0.00,190,weatherlink.com 1.10,2014-10-01 13:46:00,
2014-10-01 10:01:00,55.2,53.0,30.01,SW,216,0.0,3.0,93,0.00,,,0.00,373,weatherlink.com 1.10,2014-10-01 14:01:00,
2014-10-01 10:16:00,56.7,55.0,30.01,ENE,61,0.0,2.0,92,0.00,,,0.00,274,weatherlink.com 1.10,2014-10-01 14:16:00,